LEMUR E

Last updated on Sat Sep 08 2018 01:06:51 GMT+0100 (British Summer Time)

1 43558U 18046E 18250.58459056 .00003528 00000-0 14020-3 0 9990 2 43558 51.6434 338.4649 0008459 135.7017 224.4641 15.27947539 8101
UTC large
Height (km)
Speed (km/s)
/
Latitude / Longitude
Inclination (degrees)
Orbital Period (minutes)
Azimuth
Elevation
Range (km)
Doppler Factor

Next 0 passes for location: London (51.5072 / 0.1276)

Sorry there are no passes over London.